Regional Weather Roundup
Issued by NWS

Home | Current Version | Previous Version | Graphics & Text | Print | Product List | Glossary On
Versions: 1 2 3 4 5 6 7 8 9 10 11 12 13 14 15 16 17 18 19 20 21 22 23 24 25 26 27 28 29 30 31 32 33 34 35 36 37 38 39 40 41 42 43 44 45 46 47 48 49 50
000
ASUS44 KMEG 050700
RWRTN
TENNESSEE HOURLY STATE WEATHER ROUNDUP
NATIONAL WEATHER SERVICE MEMPHIS TN
200 AM CDT TUE MAY 05 2015

TNZ002-004-019-021-049-052-054-088>092-050800-
WEST TENNESSEE

CITY           SKY/WX    TMP DP  RH WIND       PRES   REMARKS
MEMPHIS INTL   MOCLDY    71  55  56 S9        30.18F
NWS MEMPHIS      N/A     67 N/A N/A MISG        N/A
JACKSON        CLEAR     59  52  77 CALM      30.21S
DYERSBURG      CLEAR     64  45  48 CALM      30.21S
PARIS          CLEAR     61  50  67 S6        30.22S
LEXINGTON      CLEAR     54  54 100 CALM      30.21F
$$

TNZ008-025-027-028-033-062-065-066-050800-
NORTH MIDDLE TENNESSEE

CITY           SKY/WX    TMP DP  RH WIND       PRES   REMARKS
NASHVILLE      PTCLDY    60  53  77 S6        30.24S
CLARKSVILLE    CLEAR     58  55  90 CALM      30.22S
COOKEVILLE     CLEAR     50  50 100 CALM      30.26S
CROSSVILLE     CLEAR     56  49  77 CALM      30.30S
$$

TNZ061-075-076-078-094-096-097-050800-
SOUTH MIDDLE TENNESSEE

CITY           SKY/WX    TMP DP  RH WIND       PRES   REMARKS
FAYETTEVILLE     N/A     61  50  67 CALM      30.25S
TULLAHOMA      CLEAR     54  48  82 CALM      30.27S
WINCHESTER     CLEAR     55  52  88 CALM      30.26F
MCMINNVILLE    CLEAR     54  54 100 NE3       30.26S
COLUMBIA       CLEAR     55  54  94 CALM      30.23S
SHELBYVILLE    CLEAR     57  55  94 CALM      30.25F
$$

TNZ017-018-042-046-047-050800-
NORTHEAST TENNESSEE

CITY           SKY/WX    TMP DP  RH WIND       PRES   REMARKS
TRI CITIES     CLEAR     54  51  90 CALM      30.30S
ELIZABETHTON   SUNNY     54  48  82 CALM      30.31F
$$

TNZ012-013-036-069-073-074-050800-
CENTRAL EAST TENNESSEE

CITY           SKY/WX    TMP DP  RH WIND       PRES   REMARKS
KNOXVILLE      PTCLDY    62  51  67 CALM      30.27S
OAK RIDGE      CLEAR     57  53  86 CALM      30.29S
GATLINBURG     MOSUNNY   57  52  82 CALM      30.27F
$$

TNZ083-085-099-050800-
SOUTHEAST TENNESSEE

CITY           SKY/WX    TMP DP  RH WIND       PRES   REMARKS
CHATTANOOGA    CLEAR     57  54  89 CALM      30.27S
$$

SKY/WX REPORTED AS FAIR MEANS FEW OR NO CLOUDS BELOW
12 THOUSAND FEET.




USA.gov is the U.S. government's official web portal to all federal, state and local government web resources and services.